{"data":{"norad_id":38339,"intl_designator":"2012-025C","name":"SDS-4","alt_names":[],"object_type":"PAYLOAD","status":"ACTIVE","operator":null,"country":"JPN","launch_date":"2012-05-17","launch_site_code":"TANSC","launch_vehicle":null,"mission":null,"orbit_class":"UNKNOWN","rcs_meters":0.4474,"size_class":null,"mass_kg":null,"dimensions":null,"purposes":[],"wikipedia_slug":null,"has_3d_model":false,"image_url":null,"decayed_at":null,"tle_current":{"epoch":"2026-09-20T05:35:13.959744Z","epoch_age_seconds":52250,"freshness":"FRESH","line1":"1 38339U 12025C   26263.23280046  .00000480  00000+0  77456-4 0  9994","line2":"2 38339  98.1372 359.7813 0006887   5.0590 355.0687 14.75948422770006","mean_motion":14.75948422,"eccentricity":0.0006887,"inclination_deg":98.1372,"raan_deg":359.7813,"arg_perigee_deg":5.059,"mean_anomaly_deg":355.0687,"bstar":7.7456e-5,"rev_number":77000,"period_min":97.564384942985,"perigee_km":637.30737754817,"apogee_km":646.97711017866,"semimajor_km":7020.2792438634,"source":"CELESTRAK","updated_at":"2026-09-20T09:00:13.857816Z"}}}